Meteo pe oră la Aarau

Astăzi, 13 Iunie, Duminică

Timp Temperatura Precipitaţii Vânt Presiune Umiditate
00:00 +16°C° 0 mm 1 m/s 731 mmHg 95%
01:00 +15°C° 0 mm 0 m/s 731 mmHg 96%
02:00 +15°C° 0 mm 0 m/s 731 mmHg 96%
03:00 +14°C° 0 mm 0 m/s 731 mmHg 96%
04:00 +14°C° 0 mm 0 m/s 731 mmHg 97%
05:00 +15°C° 0 mm 0 m/s 731 mmHg 94%
06:00 +16°C° 0 mm 0 m/s 731 mmHg 91%
07:00 +19°C° 0 mm 1 m/s 731 mmHg 89%
08:00 +20°C° 0 mm 1 m/s 731 mmHg 81%
09:00 +22°C° 0 mm 1 m/s 731 mmHg 72%
10:00 +23°C° 0 mm 2 m/s 732 mmHg 64%
11:00 +24°C° 0 mm 2 m/s 731 mmHg 59%
12:00 +26°C° 0 mm 2 m/s 731 mmHg 54%
13:00 +27°C° 0 mm 2 m/s 731 mmHg 49%
14:00 +27°C° 0 mm 2 m/s 731 mmHg 48%
15:00 +27°C° 0 mm 3 m/s 731 mmHg 48%
16:00 +27°C° 0 mm 3 m/s 730 mmHg 47%
17:00 +25°C° 0 mm 3 m/s 730 mmHg 55%
18:00 +24°C° 0 mm 3 m/s 730 mmHg 62%
19:00 +21°C° 0 mm 2 m/s 730 mmHg 70%
20:00 +19°C° 0 mm 2 m/s 730 mmHg 75%
21:00 +17°C° 0 mm 2 m/s 730 mmHg 81%
22:00 +15°C° 0 mm 2 m/s 731 mmHg 86%
23:00 +14°C° 0 mm 1 m/s 730 mmHg 88%

Mâine, 14 Iunie, Luni

Timp Temperatura Precipitaţii Vânt Presiune Umiditate
00:00 +13°C° 0 mm 1 m/s 730 mmHg 90%
01:00 +13°C° 0 mm 1 m/s 730 mmHg 92%
02:00 +12°C° 0 mm 1 m/s 730 mmHg 91%
03:00 +12°C° 0 mm 1 m/s 730 mmHg 91%
04:00 +11°C° 0 mm 1 m/s 729 mmHg 91%
05:00 +12°C° 0 mm 1 m/s 730 mmHg 86%
06:00 +14°C° 0 mm 1 m/s 730 mmHg 80%
07:00 +15°C° 0 mm 1 m/s 730 mmHg 75%
08:00 +18°C° 0 mm 1 m/s 730 mmHg 68%
09:00 +19°C° 0 mm 2 m/s 730 mmHg 62%
10:00 +23°C° 0 mm 2 m/s 729 mmHg 55%
11:00 +24°C° 0 mm 2 m/s 729 mmHg 50%
12:00 +26°C° 0 mm 2 m/s 729 mmHg 45%
13:00 +27°C° 0 mm 2 m/s 729 mmHg 41%
14:00 +27°C° 0 mm 2 m/s 728 mmHg 41%
15:00 +28°C° 0 mm 2 m/s 728 mmHg 41%
16:00 +28°C° 0 mm 2 m/s 728 mmHg 41%
17:00 +26°C° 0 mm 2 m/s 728 mmHg 52%
18:00 +25°C° 0 mm 1 m/s 728 mmHg 62%
19:00 +24°C° 0 mm 1 m/s 728 mmHg 73%
20:00 +22°C° 0 mm 1 m/s 728 mmHg 79%
21:00 +20°C° 0 mm 1 m/s 728 mmHg 85%
22:00 +18°C° 0 mm 1 m/s 728 mmHg 91%
23:00 +16°C° 0 mm 1 m/s 728 mmHg 92%

Poimâine, 15 Iunie, Marţi

Timp Temperatura Precipitaţii Vânt Presiune Umiditate
00:00 +16°C° 0 mm 1 m/s 728 mmHg 92%
01:00 +14°C° 0 mm 0 m/s 728 mmHg 93%
02:00 +15°C° 0 mm 1 m/s 728 mmHg 94%
03:00 +14°C° 0 mm 1 m/s 728 mmHg 94%
04:00 +14°C° 0 mm 1 m/s 728 mmHg 94%
05:00 +14°C° 0 mm 0 m/s 728 mmHg 90%
06:00 +16°C° 0 mm 0 m/s 728 mmHg 86%
07:00 +17°C° 0 mm 0 m/s 728 mmHg 82%
08:00 +21°C° 0 mm 1 m/s 728 mmHg 73%
09:00 +23°C° 0 mm 1 m/s 728 mmHg 64%
10:00 +25°C° 0 mm 1 m/s 728 mmHg 55%
11:00 +27°C° 0 mm 1 m/s 728 mmHg 50%
12:00 +28°C° 0 mm 1 m/s 728 mmHg 46%
13:00 +29°C° 0 mm 1 m/s 728 mmHg 41%
14:00 +29°C° 0 mm 1 m/s 728 mmHg 41%
15:00 +29°C° 0 mm 2 m/s 727 mmHg 41%
16:00 +29°C° 0 mm 2 m/s 727 mmHg 40%
17:00 +28°C° 0 mm 1 m/s 727 mmHg 51%
18:00 +26°C° 0 mm 1 m/s 727 mmHg 61%
19:00 +25°C° 0 mm 1 m/s 727 mmHg 72%
20:00 +23°C° 0 mm 1 m/s 727 mmHg 76%
21:00 +21°C° 0 mm 1 m/s 727 mmHg 81%
22:00 +19°C° 0 mm 1 m/s 727 mmHg 85%
23:00 +18°C° 0 mm 1 m/s 727 mmHg 86%

16 Iunie, Miercuri

Timp Temperatura Precipitaţii Vânt Presiune Umiditate
00:00 +18°C° 0 mm 1 m/s 727 mmHg 88%
01:00 +16°C° 0 mm 1 m/s 726 mmHg 89%
02:00 +16°C° 0 mm 1 m/s 726 mmHg 90%
03:00 +15°C° 0 mm 1 m/s 726 mmHg 91%
04:00 +15°C° 0 mm 1 m/s 726 mmHg 91%
05:00 +15°C° 0 mm 0 m/s 726 mmHg 87%
06:00 +17°C° 0 mm 0 m/s 726 mmHg 83%
07:00 +18°C° 0 mm 0 m/s 726 mmHg 78%
08:00 +20°C° 0 mm 0 m/s 726 mmHg 70%
09:00 +23°C° 0 mm 0 m/s 726 mmHg 62%
10:00 +27°C° 0 mm 1 m/s 726 mmHg 53%
11:00 +28°C° 0 mm 1 m/s 726 mmHg 49%
12:00 +30°C° 0 mm 1 m/s 726 mmHg 44%
13:00 +31°C° 0 mm 1 m/s 726 mmHg 39%
14:00 +31°C° 0 mm 1 m/s 725 mmHg 38%
15:00 +31°C° 0 mm 1 m/s 725 mmHg 37%
16:00 +31°C° 0 mm 1 m/s 725 mmHg 35%
17:00 +30°C° 0 mm 1 m/s 725 mmHg 46%
18:00 +28°C° 0 mm 1 m/s 725 mmHg 57%
19:00 +26°C° 0 mm 1 m/s 724 mmHg 67%
20:00 +24°C° 0 mm 1 m/s 724 mmHg 72%
21:00 +22°C° 0 mm 1 m/s 724 mmHg 77%
22:00 +20°C° 0 mm 1 m/s 724 mmHg 82%
23:00 +20°C° 0 mm 1 m/s 724 mmHg 84%

17 Iunie, Joi

Timp Temperatura Precipitaţii Vânt Presiune Umiditate
00:00 +19°C° 0 mm 1 m/s 724 mmHg 85%
01:00 +19°C° 0 mm 1 m/s 724 mmHg 86%
02:00 +18°C° 0 mm 1 m/s 724 mmHg 87%
03:00 +18°C° 0 mm 1 m/s 724 mmHg 88%
04:00 +18°C° 0 mm 1 m/s 725 mmHg 89%
05:00 +19°C° 0 mm 1 m/s 725 mmHg 84%
06:00 +21°C° 0 mm 1 m/s 725 mmHg 80%
07:00 +20°C° 0 mm 0 m/s 725 mmHg 75%
08:00 +22°C° 0 mm 0 m/s 725 mmHg 68%
09:00 +24°C° 0 mm 0 m/s 725 mmHg 60%
10:00 +27°C° 0 mm 0 m/s 725 mmHg 53%
11:00 +30°C° 0 mm 1 m/s 725 mmHg 49%
12:00 +31°C° 0 mm 1 m/s 725 mmHg 45%
13:00 +33°C° 0 mm 1 m/s 725 mmHg 41%
14:00 +33°C° 0 mm 1 m/s 724 mmHg 39%
15:00 +34°C° 0 mm 2 m/s 724 mmHg 38%
16:00 +34°C° 0 mm 2 m/s 724 mmHg 36%
17:00 +31°C° 0 mm 2 m/s 723 mmHg 46%
18:00 +29°C° 0 mm 2 m/s 723 mmHg 56%
19:00 +27°C° 0 mm 2 m/s 723 mmHg 66%
20:00 +25°C° 0.2 mm 2 m/s 723 mmHg 73%
21:00 +23°C° 0.2 mm 2 m/s 724 mmHg 80%
22:00 +20°C° 0.2 mm 2 m/s 724 mmHg 88%
23:00 +19°C° 0.2 mm 2 m/s 725 mmHg 91%

18 Iunie, Vineri

Timp Temperatura Precipitaţii Vânt Presiune Umiditate
00:00 +20°C° 0.2 mm 1 m/s 725 mmHg 93%
01:00 +19°C° 0.2 mm 1 m/s 726 mmHg 96%
02:00 +19°C° 0.1 mm 1 m/s 725 mmHg 96%
03:00 +18°C° 0.1 mm 1 m/s 725 mmHg 96%
04:00 +18°C° 0.1 mm 1 m/s 725 mmHg 96%
05:00 +19°C° 0.1 mm 1 m/s 725 mmHg 94%
06:00 +18°C° 0.1 mm 0 m/s 725 mmHg 93%
07:00 +19°C° 0.1 mm 0 m/s 725 mmHg 91%
08:00 +21°C° 0.1 mm 0 m/s 725 mmHg 83%
09:00 +23°C° 0.1 mm 0 m/s 726 mmHg 75%
10:00 +26°C° 0.1 mm 1 m/s 726 mmHg 67%
11:00 +27°C° 0.3 mm 1 m/s 726 mmHg 67%
12:00 +27°C° 0.3 mm 1 m/s 726 mmHg 67%
13:00 +27°C° 0.3 mm 2 m/s 726 mmHg 68%
14:00 +27°C° 0.6 mm 2 m/s 726 mmHg 66%
15:00 +28°C° 0.6 mm 2 m/s 726 mmHg 65%
16:00 +28°C° 0.6 mm 2 m/s 726 mmHg 63%
17:00 +27°C° 0.3 mm 1 m/s 727 mmHg 70%
18:00 +26°C° 0.3 mm 1 m/s 727 mmHg 76%
19:00 +25°C° 0.3 mm 1 m/s 727 mmHg 83%
20:00 +23°C° 0.4 mm 1 m/s 727 mmHg 86%
21:00 +21°C° 0.4 mm 1 m/s 727 mmHg 89%
22:00 +20°C° 0.4 mm 1 m/s 727 mmHg 92%
23:00 +20°C° 0 mm 1 m/s 727 mmHg 93%
Arată mai mult

Formular de consimțământ

Meteoprog și furnizorii noștri de servicii pot stoca și accesa date personale, precum cookies, identificatori de dispozitiv sau alte tehnologii similare pe dispozitivul dumneavoastră și procesa astfel de date pentru a personaliza conținutul și reclamele, dar și pentru a oferi caracteristici de social media și pentru a analiza traficul.

  • Stocarea și/sau accesarea informațiilor pe dispozitivul dumneavoastră

    Cookies, identificatori de dispozitiv sau alte informații pot fi stocate sau accesate pe dispozitiv în scopurile indicate mai sus.

  • Reclame și conținut personalizat, evaluarea reclamelor și a conținutului, informații despre audiențe și dezvoltarea produselor

    Reclamele și conținutul pot fi personalizate pe baza unui profil. Pot fi adăugate date suplimentare pentru a personaliza mai bine reclamele și conținutul. Performanța reclamelor și conținutului poate fi măsurată. Pot fi obținute informații despre utilizatorii care au văzut reclamele și conținutul. Aceste date pot fi utilizate pentru a dezvolta sau îmbunătăți experiența utilizatorilor, sistemele și software-ul.

Dând clic pe ‘Sunt de acord’, permiteți utilizarea cookie-urilor menționate, a identificatorilor de dispozitiv, balizelor web sau altor tehnologii similare. Setările pot fi modificate din browser-ul dispozitivului dumneavoastră.

În anumite scopuri, interesele legitime pot prima asupra consimțământului. Puteți citi mai multe informații în acest sens în Politica privind Confidențialitatea Datelor și Cookie.